Time,TemperatureF,DewpointF,PressureIn,WindDirection,WindDirectionDegrees,WindSpeedMPH,WindSpeedGustMPH,Humidity,HourlyPrecipIn,Conditions,Clouds,dailyrainin,SoftwareType,DateUTC
2013-10-26 00:09:00,30.5,27.0,30.25,NW,305,0.0,0.0,87,0.00,,,0.00,weatherlink.com 1.10,2013-10-26 04:09:00,
2013-10-26 00:24:00,30.1,27.0,30.25,NW,305,0.0,0.0,89,0.00,,,0.00,weatherlink.com 1.10,2013-10-26 04:24:00,
2013-10-26 00:39:00,29.8,27.0,30.25,NW,305,0.0,0.0,89,0.00,,,0.00,weatherlink.com 1.10,2013-10-26 04:39:00,
2013-10-26 00:54:00,29.4,27.0,30.25,NW,305,0.0,0.0,89,0.00,,,0.00,weatherlink.com 1.10,2013-10-26 04:54:00,
2013-10-26 01:09:00,29.1,26.0,30.25,NW,305,0.0,1.0,89,0.00,,,0.00,weatherlink.com 1.10,2013-10-26 05:09:00,
2013-10-26 01:24:00,28.9,26.0,30.25,NW,305,0.0,0.0,90,0.00,,,0.00,weatherlink.com 1.10,2013-10-26 05:24:00,
2013-10-26 01:39:00,28.6,26.0,30.25,NW,305,0.0,1.0,90,0.00,,,0.00,weatherlink.com 1.10,2013-10-26 05:39:00,
2013-10-26 01:54:00,28.4,26.0,30.25,NW,305,0.0,0.0,91,0.00,,,0.00,weatherlink.com 1.10,2013-10-26 05:54:00,
2013-10-26 02:09:00,28.2,26.0,30.24,NW,305,0.0,0.0,92,0.00,,,0.00,weatherlink.com 1.10,2013-10-26 06:09:00,
2013-10-26 02:24:00,28.0,26.0,30.23,NW,305,0.0,0.0,91,0.00,,,0.00,weatherlink.com 1.10,2013-10-26 06:24:00,
2013-10-26 02:39:00,27.8,26.0,30.23,NW,305,0.0,0.0,91,0.00,,,0.00,weatherlink.com 1.10,2013-10-26 06:39:00,
2013-10-26 02:54:00,27.6,25.0,30.23,NW,305,0.0,0.0,91,0.00,,,0.00,weatherlink.com 1.10,2013-10-26 06:54:00,
2013-10-26 03:09:00,27.4,25.0,30.23,NW,305,0.0,0.0,91,0.00,,,0.00,weatherlink.com 1.10,2013-10-26 07:09:00,
2013-10-26 03:24:00,27.3,25.0,30.23,NW,305,0.0,0.0,92,0.00,,,0.00,weatherlink.com 1.10,2013-10-26 07:24:00,
2013-10-26 03:39:00,27.4,26.0,30.23,NW,305,0.0,0.0,93,0.00,,,0.00,weatherlink.com 1.10,2013-10-26 07:39:00,
2013-10-26 03:54:00,27.1,25.0,30.22,NW,305,0.0,0.0,92,0.00,,,0.00,weatherlink.com 1.10,2013-10-26 07:54:00,
2013-10-26 04:09:00,26.8,25.0,30.22,NW,305,0.0,0.0,92,0.00,,,0.00,weatherlink.com 1.10,2013-10-26 08:09:00,
2013-10-26 04:24:00,26.6,25.0,30.21,NW,305,0.0,0.0,92,0.00,,,0.00,weatherlink.com 1.10,2013-10-26 08:24:00,
2013-10-26 04:39:00,26.6,25.0,30.21,NW,305,0.0,0.0,92,0.00,,,0.00,weatherlink.com 1.10,2013-10-26 08:39:00,
2013-10-26 04:54:00,26.5,25.0,30.20,NW,305,0.0,0.0,92,0.00,,,0.00,weatherlink.com 1.10,2013-10-26 08:54:00,
2013-10-26 05:09:00,26.3,24.0,30.20,NW,305,0.0,0.0,92,0.00,,,0.00,weatherlink.com 1.10,2013-10-26 09:09:00,
2013-10-26 05:24:00,26.2,25.0,30.20,NW,305,0.0,0.0,93,0.00,,,0.00,weatherlink.com 1.10,2013-10-26 09:24:00,
2013-10-26 05:39:00,26.0,24.0,30.20,NW,305,0.0,0.0,93,0.00,,,0.00,weatherlink.com 1.10,2013-10-26 09:39:00,
2013-10-26 05:54:00,25.8,24.0,30.20,NW,305,0.0,0.0,93,0.00,,,0.00,weatherlink.com 1.10,2013-10-26 09:54:00,
2013-10-26 06:09:00,25.7,24.0,30.19,NW,305,0.0,0.0,93,0.00,,,0.00,weatherlink.com 1.10,2013-10-26 10:09:00,
2013-10-26 06:24:00,25.7,24.0,30.19,NW,305,0.0,0.0,93,0.00,,,0.00,weatherlink.com 1.10,2013-10-26 10:24:00,
2013-10-26 06:39:00,25.8,24.0,30.18,NW,305,0.0,0.0,94,0.00,,,0.00,weatherlink.com 1.10,2013-10-26 10:39:00,
2013-10-26 06:54:00,25.8,24.0,30.18,NW,305,0.0,0.0,93,0.00,,,0.00,weatherlink.com 1.10,2013-10-26 10:54:00,
2013-10-26 07:09:00,25.8,24.0,30.19,NW,305,0.0,0.0,93,0.00,,,0.00,weatherlink.com 1.10,2013-10-26 11:09:00,
2013-10-26 07:24:00,25.7,24.0,30.18,NW,305,0.0,0.0,93,0.00,,,0.00,weatherlink.com 1.10,2013-10-26 11:24:00,
2013-10-26 07:39:00,25.8,24.0,30.18,NW,305,0.0,0.0,93,0.00,,,0.00,weatherlink.com 1.10,2013-10-26 11:39:00,
2013-10-26 07:54:00,26.6,25.0,30.18,NW,305,0.0,0.0,95,0.00,,,0.00,weatherlink.com 1.10,2013-10-26 11:54:00,
2013-10-26 08:09:00,28.4,27.0,30.18,NW,305,0.0,0.0,94,0.00,,,0.00,weatherlink.com 1.10,2013-10-26 12:09:00,
2013-10-26 08:24:00,31.8,29.0,30.18,NW,305,0.0,0.0,89,0.00,,,0.00,weatherlink.com 1.10,2013-10-26 12:24:00,
2013-10-26 08:40:00,34.7,30.0,30.17,NW,305,0.0,0.0,84,0.01,,,0.01,weatherlink.com 1.10,2013-10-26 12:40:00,
2013-10-26 08:55:00,37.0,30.0,30.17,NW,310,0.0,1.0,77,0.01,,,0.01,weatherlink.com 1.10,2013-10-26 12:55:00,
2013-10-26 09:10:00,38.6,31.0,30.17,East,80,0.0,2.0,73,0.01,,,0.01,weatherlink.com 1.10,2013-10-26 13:10:00,
2013-10-26 09:25:00,40.0,32.0,30.16,WSW,239,1.0,2.0,72,0.01,,,0.01,weatherlink.com 1.10,2013-10-26 13:25:00,
2013-10-26 09:40:00,41.3,32.0,30.16,NE,42,1.0,3.0,69,0.00,,,0.01,weatherlink.com 1.10,2013-10-26 13:40:00,
2013-10-26 09:55:00,42.6,32.0,30.15,NE,46,1.0,3.0,67,0.00,,,0.01,weatherlink.com 1.10,2013-10-26 13:55:00,
2013-10-26 10:10:00,44.5,32.0,30.15,NNW,338,1.0,5.0,63,0.00,,,0.01,weatherlink.com 1.10,2013-10-26 14:10:00,
2013-10-26 10:25:00,45.7,33.0,30.14,SSW,195,0.0,3.0,61,0.00,,,0.01,weatherlink.com 1.10,2013-10-26 14:25:00,
2013-10-26 10:40:00,47.0,33.0,30.14,SW,215,2.0,5.0,58,0.00,,,0.01,weatherlink.com 1.10,2013-10-26 14:40:00,
2013-10-26 10:55:00,48.1,33.0,30.13,ESE,123,2.0,4.0,57,0.00,,,0.01,weatherlink.com 1.10,2013-10-26 14:55:00,
2013-10-26 11:10:00,49.4,33.0,30.12,North,5,1.0,5.0,54,0.00,,,0.01,weatherlink.com 1.10,2013-10-26 15:10:00,
2013-10-26 11:25:00,50.3,33.0,30.11,SSW,211,3.0,4.0,52,0.00,,,0.01,weatherlink.com 1.10,2013-10-26 15:25:00,
2013-10-26 11:40:00,51.0,32.0,30.09,NW,315,2.0,6.0,48,0.00,,,0.01,weatherlink.com 1.10,2013-10-26 15:40:00,
2013-10-26 11:55:00,51.5,31.0,30.08,NW,311,3.0,12.0,45,0.00,,,0.01,weatherlink.com 1.10,2013-10-26 15:55:00,
2013-10-26 12:10:00,51.8,31.0,30.07,North,355,1.0,11.0,45,0.00,,,0.01,weatherlink.com 1.10,2013-10-26 16:10:00,
2013-10-26 12:25:00,52.2,31.0,30.06,NW,318,3.0,10.0,44,0.00,,,0.01,weatherlink.com 1.10,2013-10-26 16:25:00,
2013-10-26 12:41:00,52.2,31.0,30.06,West,275,3.0,12.0,44,0.00,,,0.01,weatherlink.com 1.10,2013-10-26 16:41:00,
2013-10-26 12:56:00,52.6,30.0,30.04,West,259,1.0,9.0,42,0.00,,,0.01,weatherlink.com 1.10,2013-10-26 16:56:00,
2013-10-26 13:11:00,53.7,31.0,30.03,NW,311,2.0,7.0,42,0.00,,,0.01,weatherlink.com 1.10,2013-10-26 17:11:00,
2013-10-26 13:26:00,53.8,30.0,30.01,WNW,299,2.0,6.0,40,0.00,,,0.01,weatherlink.com 1.10,2013-10-26 17:26:00,
2013-10-26 13:41:00,54.1,29.0,30.01,WNW,288,3.0,9.0,39,0.00,,,0.01,weatherlink.com 1.10,2013-10-26 17:41:00,
2013-10-26 13:56:00,54.4,30.0,30.00,SSW,211,3.0,7.0,40,0.00,,,0.01,weatherlink.com 1.10,2013-10-26 17:56:00,
2013-10-26 14:11:00,55.0,30.0,29.99,NNW,348,1.0,6.0,39,0.00,,,0.01,weatherlink.com 1.10,2013-10-26 18:11:00,
2013-10-26 14:26:00,55.0,29.0,29.98,SW,232,1.0,10.0,37,0.00,,,0.01,weatherlink.com 1.10,2013-10-26 18:26:00,
2013-10-26 14:41:00,55.1,30.0,29.98,WSW,240,2.0,7.0,38,0.00,,,0.01,weatherlink.com 1.10,2013-10-26 18:41:00,
2013-10-26 14:56:00,55.3,31.0,29.97,SW,227,0.0,7.0,39,0.00,,,0.01,weatherlink.com 1.10,2013-10-26 18:56:00,
2013-10-26 15:11:00,55.1,29.0,29.96,North,355,2.0,8.0,37,0.00,,,0.01,weatherlink.com 1.10,2013-10-26 19:11:00,
2013-10-26 15:26:00,54.9,28.0,29.96,West,269,3.0,7.0,35,0.00,,,0.01,weatherlink.com 1.10,2013-10-26 19:26:00,
2013-10-26 15:41:00,54.3,28.0,29.96,SW,219,1.0,11.0,37,0.00,,,0.01,weatherlink.com 1.10,2013-10-26 19:41:00,
2013-10-26 15:56:00,54.2,28.0,29.95,NW,313,2.0,8.0,37,0.00,,,0.01,weatherlink.com 1.10,2013-10-26 19:56:00,
2013-10-26 16:11:00,54.2,28.0,29.93,NE,55,2.0,6.0,37,0.00,,,0.01,weatherlink.com 1.10,2013-10-26 20:11:00,
2013-10-26 16:26:00,54.2,28.0,29.92,North,355,0.0,5.0,36,0.00,,,0.01,weatherlink.com 1.10,2013-10-26 20:26:00,
2013-10-26 16:41:00,54.2,28.0,29.92,West,281,3.0,5.0,37,0.00,,,0.01,weatherlink.com 1.10,2013-10-26 20:41:00,
2013-10-26 16:56:00,54.0,28.0,29.91,SW,236,1.0,8.0,37,0.00,,,0.01,weatherlink.com 1.10,2013-10-26 20:56:00,
2013-10-26 17:11:00,54.0,29.0,29.90,SSW,201,3.0,5.0,38,0.00,,,0.01,weatherlink.com 1.10,2013-10-26 21:11:00,
2013-10-26 17:26:00,53.8,29.0,29.89,NNW,327,0.0,7.0,38,0.00,,,0.01,weatherlink.com 1.10,2013-10-26 21:26:00,
2013-10-26 17:41:00,53.4,28.0,29.89,South,191,1.0,5.0,38,0.00,,,0.01,weatherlink.com 1.10,2013-10-26 21:41:00,
2013-10-26 17:56:00,52.8,28.0,29.90,West,264,0.0,3.0,38,0.00,,,0.01,weatherlink.com 1.10,2013-10-26 21:56:00,
2013-10-26 18:11:00,52.3,28.0,29.89,West,268,0.0,4.0,40,0.00,,,0.01,weatherlink.com 1.10,2013-10-26 22:11:00,
2013-10-26 18:26:00,51.9,29.0,29.89,SSW,204,0.0,2.0,42,0.00,,,0.01,weatherlink.com 1.10,2013-10-26 22:26:00,
2013-10-26 18:41:00,51.4,30.0,29.89,SSW,201,0.0,1.0,44,0.00,,,0.01,weatherlink.com 1.10,2013-10-26 22:41:00,
2013-10-26 18:56:00,50.9,31.0,29.88,SSW,192,0.0,0.0,47,0.00,,,0.01,weatherlink.com 1.10,2013-10-26 22:56:00,
2013-10-26 19:11:00,50.8,31.0,29.88,NE,49,0.0,2.0,47,0.00,,,0.01,weatherlink.com 1.10,2013-10-26 23:11:00,
2013-10-26 19:26:00,50.6,31.0,29.88,ESE,110,0.0,2.0,47,0.00,,,0.01,weatherlink.com 1.10,2013-10-26 23:26:00,
2013-10-26 19:41:00,50.4,31.0,29.88,SSE,157,0.0,2.0,48,0.00,,,0.01,weatherlink.com 1.10,2013-10-26 23:41:00,
2013-10-26 19:56:00,50.4,31.0,29.88,NE,46,1.0,3.0,48,0.00,,,0.01,weatherlink.com 1.10,2013-10-26 23:56:00,
2013-10-26 20:11:00,50.4,31.0,29.88,SW,234,0.0,3.0,48,0.00,,,0.01,weatherlink.com 1.10,2013-10-27 00:11:00,
2013-10-26 20:26:00,50.4,31.0,29.88,NW,321,0.0,2.0,48,0.00,,,0.01,weatherlink.com 1.10,2013-10-27 00:26:00,
2013-10-26 20:41:00,50.3,31.0,29.88,SW,218,0.0,2.0,48,0.00,,,0.01,weatherlink.com 1.10,2013-10-27 00:41:00,
2013-10-26 20:56:00,50.2,31.0,29.87,SSE,167,0.0,2.0,48,0.00,,,0.01,weatherlink.com 1.10,2013-10-27 00:56:00,
2013-10-26 21:11:00,50.1,31.0,29.87,WNW,283,0.0,3.0,48,0.00,,,0.01,weatherlink.com 1.10,2013-10-27 01:11:00,
2013-10-26 21:26:00,50.2,31.0,29.87,WSW,243,0.0,3.0,48,0.00,,,0.01,weatherlink.com 1.10,2013-10-27 01:26:00,
2013-10-26 21:41:00,50.2,31.0,29.88,SW,215,0.0,1.0,48,0.00,,,0.01,weatherlink.com 1.10,2013-10-27 01:41:00,
2013-10-26 21:56:00,50.0,31.0,29.88,West,276,0.0,2.0,49,0.00,,,0.01,weatherlink.com 1.10,2013-10-27 01:56:00,
2013-10-26 22:11:00,49.8,32.0,29.89,West,276,0.0,1.0,51,0.00,,,0.01,weatherlink.com 1.10,2013-10-27 02:11:00,
2013-10-26 22:27:00,49.4,33.0,29.89,West,276,0.0,0.0,53,0.00,,,0.01,weatherlink.com 1.10,2013-10-27 02:27:00,
2013-10-26 22:42:00,49.0,31.0,29.89,NW,321,0.0,3.0,51,0.00,,,0.01,weatherlink.com 1.10,2013-10-27 02:42:00,
2013-10-26 22:57:00,49.5,31.0,29.89,SW,227,0.0,4.0,50,0.00,,,0.01,weatherlink.com 1.10,2013-10-27 02:57:00,
2013-10-26 23:12:00,49.6,32.0,29.89,East,89,1.0,2.0,51,0.00,,,0.01,weatherlink.com 1.10,2013-10-27 03:12:00,
2013-10-26 23:27:00,50.6,32.0,29.89,WNW,288,3.0,7.0,49,0.00,,,0.01,weatherlink.com 1.10,2013-10-27 03:27:00,
2013-10-26 23:42:00,52.4,32.0,29.90,NW,313,4.0,12.0,47,0.00,,,0.01,weatherlink.com 1.10,2013-10-27 03:42:00,
2013-10-26 23:57:00,52.4,32.0,29.90,WNW,288,2.0,6.0,46,0.00,,,0.01,weatherlink.com 1.10,2013-10-27 03:57:00,